User: anonymous   Login
Location: Unspecified
(0.0000°N, 0.0000°E)
Time: 16:32:41
(UTC+00:00)
Language:

NOAA 19 - Orbit

View from above orbital plane
View from above orbital plane
View from above satellite
View from above satellite

Ground track
Ground track

The orbit data is extracted from the following two-line orbital elements,

1 33591U 09005A   23345.44259794  .00000193  00000-0  12845-3 0  9992
2 33591  99.0769  34.0050 0014788 103.8237 256.4581 14.12883992764978
Epoch (UTC): 11 December 2023 10:37:20
Eccentricity: 0.0014788
inclination: 99.0769°
perigee height: 839 km
apogee height: 860 km
right ascension of ascending node: 34.0050°
argument of perigee: 103.8237°
revolutions per day: 14.12883992
mean anomaly at epoch: 256.4581°
orbit number at epoch: 76497

The dashed part of the orbit path shows where the satellite is in the earth's shadow,  

DLR